Location: Hackberry
(29.5783°N, 96.8797°W)
Time: 23:19:22
(UTC+00:00)

Vanguard 2 - All Passes

Search period start: 04 November 2024 00:00
Search period end: 14 November 2024 00:00
Orbit: 551 x 2910 km, 32.9° (Epoch: 04 November)

Date Brightness Start Highest point End Pass type
(mag) Time Alt. Az. Time Alt. Az. Time Alt. Az.
04 Nov - 00:40:41 10° WNW 00:56:31 42° SW 01:09:33 10° SSE visible
04 Nov - 03:03:55 10° WSW 03:05:42 10° SW 03:07:25 10° SW visible
04 Nov - 14:09:24 10° SSE 14:13:57 17° SE 14:19:48 10° E daylight
04 Nov - 16:13:06 10° SW 16:21:37 61° SSE 16:35:41 10° ENE daylight
04 Nov - 18:20:58 10° W 18:32:28 82° N 18:49:46 10° E daylight
04 Nov - 20:30:45 10° W 20:45:33 82° N 21:03:37 10° E daylight
04 Nov - 22:41:44 10° WNW 22:58:43 71° SSW 23:15:02 10° SE daylight
05 Nov - 00:55:14 10° W 01:09:52 33° SW 01:22:10 10° SSE visible
05 Nov - 14:21:30 10° S 14:27:05 24° SE 14:35:02 10° E daylight
05 Nov - 16:26:35 10° WSW 16:35:14 73° SSE 16:49:43 10° ENE daylight
05 Nov - 18:34:51 10° W 18:46:30 79° N 19:03:54 10° E daylight
05 Nov - 20:44:39 10° WNW 20:59:37 87° NNE 21:17:39 10° ESE daylight
05 Nov - 22:55:42 10° WNW 23:12:24 62° SSW 23:28:26 10° SE daylight
06 Nov - 01:10:13 10° W 01:23:10 26° SW 01:34:22 10° S visible
06 Nov - 14:34:11 10° SSW 14:40:17 33° SE 14:49:38 10° E daylight
06 Nov - 16:40:12 10° WSW 16:48:58 84° SSE 17:03:45 10° ENE daylight
06 Nov - 18:48:44 10° W 19:00:35 78° N 19:18:03 10° E daylight
06 Nov - 20:58:31 10° WNW 21:13:35 87° SSW 21:31:34 10° ESE daylight
06 Nov - 23:09:46 10° WNW 23:26:00 53° SW 23:41:37 10° SE daylight
07 Nov - 01:25:56 10° W 01:36:29 19° SW 01:45:55 10° S visible
07 Nov - 14:47:12 10° SSW 14:53:36 43° SE 15:03:55 10° ENE daylight
07 Nov - 16:53:55 10° WSW 17:02:49 87° NNW 17:17:47 10° ENE daylight
07 Nov - 19:02:37 10° W 19:14:39 79° N 19:32:13 10° E daylight
07 Nov - 21:12:23 10° WNW 21:27:29 80° SSW 21:45:20 10° ESE daylight
07 Nov - 23:23:58 10° W 23:39:32 44° SW 23:54:33 10° SSE daylight
08 Nov - 01:43:12 10° WSW 01:49:50 13° SW 01:56:02 10° SSW visible
08 Nov - 12:58:43 10° SE 13:00:04 11° SE 13:01:31 10° ESE daylight
08 Nov - 15:00:28 10° SW 15:07:01 56° SSE 15:18:02 10° ENE daylight
08 Nov - 17:07:42 10° W 17:16:44 81° N 17:31:51 10° ENE daylight
08 Nov - 19:16:29 10° WNW 19:28:41 81° N 19:46:20 10° E daylight
08 Nov - 21:26:15 10° WNW 21:41:18 71° SSW 21:58:56 10° SE daylight
08 Nov - 23:38:24 10° W 23:53:00 35° SW 00:07:10 10° SSE visible
09 Nov - 13:09:34 10° S 13:13:13 17° SE 13:17:54 10° E daylight
09 Nov - 15:13:54 10° WSW 15:20:34 69° SSE 15:32:03 10° ENE daylight
09 Nov - 17:21:31 10° W 17:30:42 77° N 17:45:57 10° E daylight
09 Nov - 19:30:18 10° WNW 19:42:40 86° NNE 20:00:23 10° ESE daylight
09 Nov - 21:40:08 10° WNW 21:55:02 62° SSW 22:12:20 10° SE daylight
09 Nov - 23:53:14 10° W 00:06:28 28° SW 00:19:22 10° S visible
10 Nov - 13:21:57 10° SSW 13:26:24 25° SE 13:32:42 10° E daylight
10 Nov - 15:27:28 10° WSW 15:34:15 82° SSE 15:46:01 10° ENE daylight
10 Nov - 17:35:20 10° W 17:44:41 76° N 18:00:05 10° E daylight
10 Nov - 19:44:06 10° WNW 19:56:34 88° SSW 20:14:19 10° ESE daylight
10 Nov - 21:54:08 10° WNW 22:08:43 53° SSW 22:25:29 10° SE daylight
11 Nov - 00:08:40 10° W 00:19:55 21° SW 00:30:58 10° S visible
11 Nov - 13:34:51 10° SSW 13:39:41 35° SE 13:47:03 10° E daylight
11 Nov - 15:41:09 10° WSW 15:48:01 87° NNW 16:00:00 10° ENE daylight
11 Nov - 17:49:09 10° W 17:58:39 77° N 18:14:14 10° E daylight
11 Nov - 19:57:53 10° WNW 20:10:25 80° SSW 20:28:07 10° ESE daylight
11 Nov - 22:08:15 10° W 22:22:20 44° SW 22:38:23 10° SSE daylight
12 Nov - 00:25:21 10° WSW 00:33:27 15° SW 00:41:27 10° SSW visible
12 Nov - 13:48:02 10° SW 13:53:06 48° SSE 14:01:08 10° ENE daylight
12 Nov - 15:54:53 10° W 16:01:53 79° N 16:14:00 10° ENE daylight
12 Nov - 18:02:56 10° WNW 18:12:36 80° N 18:28:22 10° E daylight
12 Nov - 20:11:41 10° WNW 20:24:14 70° SSW 20:41:43 10° SE daylight
12 Nov - 22:22:36 10° W 22:35:56 36° SW 22:50:57 10° SSE daylight
13 Nov - 11:58:07 10° SSE 11:59:38 11° SE 12:01:18 10° ESE visible
13 Nov - 14:01:25 10° SW 14:06:37 64° SSE 14:15:06 10° ENE daylight
13 Nov - 16:08:39 10° W 16:15:46 74° N 16:28:02 10° E daylight
13 Nov - 18:16:41 10° WNW 18:26:29 85° NNE 18:42:24 10° ESE daylight
13 Nov - 20:25:31 10° WNW 20:37:59 61° SSW 20:55:06 10° SE daylight
13 Nov - 22:37:19 10° W 22:49:33 28° SW 23:03:06 10° SSE daylight
